Regional Weather Roundup
Issued by NWS

Home | Current Version | Previous Version | Graphics & Text | Print | Product List | Glossary On
Versions: 1 2 3 4 5 6 7 8 9 10 11 12 13 14 15 16 17 18 19 20 21 22 23 24 25 26 27 28 29 30 31 32 33 34 35 36 37 38 39 40 41 42 43 44 45 46 47 48 49 50
000
ASUS43 KLOT 301812
RWRIL

ILLINOIS REGIONAL WEATHER ROUNDUP
NATIONAL WEATHER SERVICE CHICAGO/ROMEOVILLE IL
100 PM CDT MON MAR 30 2015

NOTE: "FAIR" INDICATES FEW OR NO CLOUDS BELOW 12,000 FEET WITH NO
SIGNIFICANT WEATHER AND/OR OBSTRUCTIONS TO VISIBILITY.

* THESE STATIONS ARE NOT UNDER NWS QUALITY CONTROL. THEY ALSO MAY NOT
  REPORT WEATHER SUCH AS PRECIPITATION OR FOG.

ILZ001-002-007-009-015-016-024-301900-
NORTHWEST ILLINOIS

CITY           SKY/WX    TMP DP  RH WIND       PRES   REMARKS
MOLINE         SUNNY     66  26  22 W15G23    30.02F
6HR MIN TEMP:  31; 6HR MAX TEMP:  67;

STERLING*      SUNNY     64  34  32 NW23      30.02F
SAVANNA*       SUNNY     64  28  25 W14       30.00F
$$

ILZ003-004-008-010-011-017-018-301900-
NORTH CENTRAL ILLINOIS

CITY           SKY/WX    TMP DP  RH WIND       PRES   REMARKS
ROCKFORD       PTSUNNY   60  30  32 W21       30.01F
6HR MIN TEMP:  34; 6HR MAX TEMP:  60;

FREEPORT*      SUNNY     59  32  36 SW15G22   30.01F
ROCHELLE*      MOSUNNY   57  33  40 W20G25    30.02F
DE KALB*       SUNNY     56  33  40 W13G22    30.02F
PERU*          SUNNY     63  30  28 W22       30.03F
$$

ILZ005-006-012>014-019>023-301900-
NORTHEAST ILLINOIS

CITY           SKY/WX    TMP DP  RH WIND       PRES   REMARKS
CHICAGO-OHARE  PTSUNNY   57  28  33 W17       30.01F
6HR MIN TEMP:  34; 6HR MAX TEMP:  58;

CHICAGO-MIDWAY PTSUNNY   58  27  30 W18G28    30.03F
6HR MIN TEMP:  37; 6HR MAX TEMP:  60;

AURORA         SUNNY     60  30  32 W17       30.02F
6HR MIN TEMP:  30; 6HR MAX TEMP:  60;

LANSING*       MOSUNNY   59  26  28 W18G24    30.04S
JOLIET*        SUNNY     60  31  33 W9G17     30.04F
WAUKEGAN       FAIR      56  27  32 VRB7G24   29.98F
6HR MIN TEMP:  35; 6HR MAX TEMP:  57;

DUPAGE AIRPORT SUNNY     58  30  34 W17G23    30.01F
6HR MIN TEMP:  33; 6HR MAX TEMP:  58;

KANKAKEE*      SUNNY     58  34  40 W14G21    30.07F
WHEELING       PTSUNNY   58  26  29 W15       30.02F
6HR MIN TEMP:  36; 6HR MAX TEMP:  58;

MORRIS*        SUNNY     59  30  33 W14G22    30.03F
ROMEOVILLE*    SUNNY     59  29  32 W14G20    30.04S
NORTHERLY ISL    N/A     56  24  29 W7          N/A
$$

LMZ740>746-301900-
SOUTHERN LAKE MICHIGAN

STATION/POSITION SKY/WX   TEMP    WIND        PRES    VSBY  WAVE
                          AIR SEA DIR/SP/G                  HT/PER
                          (F)     (DEG/KT/KT) (MB)    (MI)  (FT/S)
HARRISON CRIB              51     280/ 13/ 17   N/A
BURNHAM HARBOR             56     300/ 15/ 15   N/A
CALUMET HARBOR             55     240/  8/ 16 1016.0F
BURNS HARBOR               44     260/  8/ 10 1018.3F
MICHIGAN CITY              43     220/ 15/ 15   N/A
$$

ILZ025>027-034>036-040-047-049-050-058-095>099-301900-
WEST-CENTRAL ILLINOIS

CITY           SKY/WX    TMP DP  RH WIND       PRES   REMARKS
QUINCY         SUNNY     65  29  25 W13       30.10F
GALESBURG*     SUNNY     64  31  29 W17G28    30.06F
MACOMB*        SUNNY     65  31  28 W15G21    30.10S
JACKSONVILLE*  SUNNY     67  31  26 SW14G20   30.10F
PITTSFIELD*    SUNNY     64  30  27 W12G17    30.12F
$$

ILZ028>032-037-038-041>044-048-051>054-059>061-301900-
CENTRAL ILLINOIS

CITY           SKY/WX    TMP DP  RH WIND       PRES   REMARKS
PONTIAC        SUNNY     61  34  36 W16       30.07F
BLOOMINGTON    SUNNY     61  31  32 W15       30.09F
DECATUR        SUNNY     63  29  27 W13       30.11F
PEORIA         SUNNY     66  27  23 W20       30.07F
6HR MIN TEMP:  34; 6HR MAX TEMP:  67;

LACON*         SUNNY     63  26  24 W15G26    30.04F
LINCOLN*       SUNNY     65  31  27 SW7       30.08F
SPRINGFIELD    SUNNY     65  29  25 W13       30.10F
6HR MIN TEMP:  34; 6HR MAX TEMP:  65;

TAYLORVILLE    SUNNY     61  32  33 W12G17    30.13F
$$

ILZ033-039-045-046-055>057-062-063-301900-
EAST-CENTRAL ILLINOIS

CITY           SKY/WX    TMP DP  RH WIND       PRES   REMARKS
CHAMPAIGN      SUNNY     60  32  34 W16G23    30.11F
DANVILLE*      SUNNY     56  34  42 W10G17    30.09F
RANTOUL*       SUNNY     61  33  36 W12G18    30.10F
MATTOON        SUNNY     60  31  33 W8        30.12F
PARIS*         SUNNY     58  38  47 W8G17     30.13F
$$

ILZ079-100>102-301900-
SOUTHWEST ILLINOIS

CITY           SKY/WX    TMP DP  RH WIND       PRES   REMARKS
BELLEVILLE     SUNNY     64  29  26 VRB2      30.16F
CAHOKIA*       SUNNY     64  29  26 VRB6      30.17F
SPARTA*        SUNNY     61  31  32 W7        30.19F
$$

ILZ064>066-069>071-074>076-080>082-084>086-088>090-092>094-301900-
SOUTH-CENTRAL ILLINOIS

CITY           SKY/WX    TMP DP  RH WIND       PRES   REMARKS
CARBONDALE     SUNNY     62  26  25 N10       30.19F
6HR MIN TEMP:  41; 6HR MAX TEMP:  63;

CAIRO*         SUNNY     62  33  33 E3        30.20F
EFFINGHAM*     SUNNY     61  26  25 W9        30.16F
MARION         MOSUNNY   63  28  27 NW8       30.19F
MT. VERNON     SUNNY     63  30  29 S6        30.18F
CENTRALIA*     SUNNY     61  29  30 W9        30.17F
SALEM*         SUNNY     64  27  24 W9        30.17F
METROPOLIS*    MOSUNNY   64  28  25 N7        30.19F
$$

ILZ067-068-072-073-078-083-087-091-301900-
SOUTHEAST ILLINOIS

CITY           SKY/WX    TMP DP  RH WIND       PRES   REMARKS
LAWRENCEVILLE  MOSUNNY   60  33  36 MISG      30.16F
FLORA*         MOSUNNY   60  29  30 NW3       30.17F
FAIRFIELD*     SUNNY     61  28  28 W3        30.16F
HARRISBURG*    MOSUNNY   60  29  30 CALM      30.20F
ROBINSON*      SUNNY     58  33  38 W8        30.16F
CARMI*         MOSUNNY   61  23  23 NW5       30.18F
$$

ABBREVIATIONS USED IN REMARKS
   TC - TEMPERATURE IN CELSIUS
  WCI - WIND CHILL INDEX
   HX - HEAT INDEX
  VSB - VISIBILITY
$$




USA.gov is the U.S. government's official web portal to all federal, state and local government web resources and services.